sat.trackr.live / text

‹ back to catalog

STARLINK-36533

NORAD 67643 · 2026-020AC

PAYLOAD ACTIVE UNKNOWN

§ Identity

Operator
Country
US
Launch date
2026-01-30
Launch site
AFETR
Launch vehicle
Mass (kg)
RCS (m²)

Purposes: comms

External: N2YO · Heavens-Above · Gunter

§ Orbital elements

Epoch: 2026-09-19T00:37:04.939968Z

Period
94.27 min
Inclination
43.0018°
Eccentricity
0.0000715
Mean motion
15.27590462 rev/d
Perigee alt
482.5 km
Apogee alt
483.5 km
Semi-major
6,861.2 km
B*
6.0711e-4
RAAN
127.7665°
Arg perigee
6.9418°
Mean anomaly
353.1444°
Rev number
3,568

§ Raw data

STARLINK-365331 67643U 26020AC  26262.02575162  .00016487  00000+0  60711-3 0  99952 67643  43.0018 127.7665 0000715   6.9418 353.1444 15.27590462 35686

JSON: /api/v1/satellites/67643 · /tle

For live sub-satellite position, see the globe view (requires WebGL).

§ Visibility from observer

Set your observer location to see the next 7 days of passes ≥ 10°. The values pass through the URL so the page stays shareable.

No JS? Fill the form by hand. The geolocation button needs JavaScript.